Weather History for Montrose, CO

Change the Weather History Date:

Thursday, February 6, 2014

  Actual Average Record
Temperature  
Mean Temperature 23 °F 30 °F  
Max Temperature 34 °F 42 °F 55 °F (2001)
Min Temperature 12 °F 19 °F 0 °F (2008)
Degree Days  
Heating Degree Days 42 35  
Month to date heating degree days 269 213  
Since 1 July heating degree days 4185 4018  
Cooling Degree Days 0 0  
Month to date cooling degree days 0 0  
Year to date cooling degree days 0 0  
Moisture  
Dew Point 16 °F    
Average Humidity 69    
Maximum Humidity 84    
Minimum Humidity 54    
Precipitation  
Precipitation 0.00 in 0.02 in 0.10 in (2012)
Month to date precipitation 0.12 0.09  
Year to date precipitation 0.77 0.74  
Sea Level Pressure  
Sea Level Pressure 30.00 in    
Wind  
Wind Speed 2 mph (ENE)    
Max Wind Speed 7 mph    
Max Gust Speed 8 mph    
Visibility 10 miles    
Events      
T = Trace of Precipitation, MM = Missing Value Source: NWS Daily Summary

Daily Weather History Graph

Daily Weather History Graph

Search for Another Location

Airport:

Trip Planner

Search our weather history database for the weather conditions in past years. The results will help you decide how hot, cold, wet, or windy it might be!

Date:

Astronomy

Feb. 06, 2014 Rise Set
Actual Time 7:12 AM MST 5:39 PM MST
Civil Twilight 6:44 AM MST 6:07 PM MST
Nautical Twilight 6:13 AM MST 6:38 PM MST
Astronomical Twilight 5:42 AM MST 7:09 PM MST
Moon 11:13 AM MST (2/6) 12:31 AM MST (2/6)
Length of Visible Light 11h 22m
Length of Day
10h 27m
Waxing Crescent, 50% of the Moon is Illuminated
Feb 6
Waxing Crescent
Feb 6
First Quarter
Feb 14
Full
Feb 22
Last Quarter
Mar 1
New

Hourly Weather History & Observations

Time (MST) Temp. Windchill Dew Point Humidity Pressure Visibility Wind Dir Wind Speed Gust Speed Precip Events Conditions
12:53 AM 17.1 °F - 12.9 °F 84% 30.08 in 10.0 mi Calm Calm - N/A   Overcast
1:53 AM 18.0 °F - 12.9 °F 81% 30.06 in 9.0 mi Calm Calm - N/A   Overcast
2:53 AM 18.0 °F 9.8 °F 12.0 °F 78% 30.04 in 10.0 mi SSE 5.8 mph - N/A   Overcast
3:53 AM 18.0 °F - 12.0 °F 78% 30.04 in 10.0 mi Calm Calm - N/A   Overcast
4:53 AM 12.0 °F 5.9 °F 9.0 °F 88% 30.07 in 9.0 mi SSE 3.5 mph - N/A   Mostly Cloudy
5:53 AM 15.1 °F - 10.0 °F 80% 30.07 in 10.0 mi Calm Calm - N/A   Overcast
6:53 AM 15.1 °F 9.4 °F 10.9 °F 84% 30.09 in 10.0 mi ESE 3.5 mph - N/A   Overcast
7:53 AM 17.1 °F - 12.0 °F 81% 30.09 in 10.0 mi Calm Calm - N/A   Overcast
8:53 AM 19.9 °F - 15.1 °F 81% 30.08 in 9.0 mi Calm Calm - N/A   Overcast
9:53 AM 21.9 °F 17.2 °F 15.1 °F 75% 30.07 in 10.0 mi WNW 3.5 mph - N/A   Mostly Cloudy
10:53 AM 26.1 °F 20.5 °F 16.0 °F 66% 30.05 in 10.0 mi NW 4.6 mph - N/A   Clear
11:53 AM 28.0 °F 24.2 °F 16.0 °F 61% 30.02 in 10.0 mi North 3.5 mph - N/A   Clear
12:53 PM 30.0 °F 26.5 °F 18.0 °F 61% 29.99 in 10.0 mi NNW 3.5 mph - N/A   Partly Cloudy
1:53 PM 33.1 °F - 19.0 °F 56% 29.94 in 10.0 mi Calm Calm - N/A   Mostly Cloudy
2:53 PM 33.1 °F - 19.0 °F 56% 29.93 in 10.0 mi Calm Calm - N/A   Overcast
3:53 PM 30.9 °F 26.2 °F 19.0 °F 61% 29.94 in 10.0 mi East 4.6 mph - N/A   Overcast
4:53 PM 32.0 °F - 18.0 °F 56% 29.95 in 10.0 mi Calm Calm - N/A   Overcast
5:53 PM 30.9 °F - 18.0 °F 59% 29.95 in 10.0 mi Calm Calm - N/A   Overcast
6:53 PM 28.0 °F 24.2 °F 21.0 °F 75% 29.96 in 10.0 mi East 3.5 mph - N/A   Overcast
7:53 PM 27.0 °F - 19.9 °F 75% 29.97 in 10.0 mi Calm Calm - N/A   Overcast
8:53 PM 27.0 °F - 19.9 °F 75% 29.95 in 8.0 mi Calm Calm - N/A   Overcast
9:53 PM 27.0 °F - 21.0 °F 78% 29.94 in 9.0 mi Calm Calm - N/A   Overcast
10:53 PM 26.1 °F - 19.9 °F 78% 29.92 in 7.0 mi Calm Calm - N/A   Overcast
11:53 PM 25.0 °F - 19.9 °F 81% 29.91 in 7.0 mi Calm Calm - N/A   Overcast